Ottumwa, IA

6:37 AM CDT on September 21, 2019 (GMT -0500)
Ottumwa Industrial

Weather History for KOTM - August, 2019

Change the Weather History Date:

Thursday, August 22, 2019

  Actual Average Record
Temperature  
Mean Temperature 70 °F 72 °F  
Max Temperature 79 °F 83 °F 104 °F (1936)
Min Temperature 61 °F 62 °F 44 °F (1923)
Degree Days  
Heating Degree Days 0 0  
Month to date heating degree days 0 0  
Since 1 June heating degree days 4 23  
Since 1 July heating degree days 0 2  
Cooling Degree Days 5 8  
Month to date cooling degree days 200 193  
Year to date cooling degree days 847 772  
Since 1 June cooling degree days 784 708  
Growing Degree Days 20 (Base 50)    
Moisture  
Dew Point 59 °F    
Average Humidity 71    
Maximum Humidity 97    
Minimum Humidity 45    
Precipitation  
Precipitation 0.00 in 0.15 in 2.61 in (2002)
Month to date precipitation 2.88 3.29  
Year to date precipitation 29.40 25.38  
Sea Level Pressure  
Sea Level Pressure 30.02 in    
Wind  
Wind Speed 6 mph (NE)    
Max Wind Speed 12 mph    
Max Gust Speed 16 mph    
Visibility 10 miles    
Events      
T = Trace of Precipitation, MM = Missing Value Source: NWS Daily Summary

Daily Weather History Graph

Daily Weather History Graph

Search for Another Location

Airport or City:

Astronomy

Aug. 22, 2019 Rise Set
Actual Time 6:26 AM CDT 7:58 PM CDT
Civil Twilight 5:57 AM CDT 8:27 PM CDT
Nautical Twilight 5:22 AM CDT 9:02 PM CDT
Astronomical Twilight 4:44 AM CDT 9:39 PM CDT
Moon 11:45 PM CDT (8/22) 1:05 PM CDT (8/22)
Length of Visible Light 14h 30m
Length of Day
13h 32m
Waning Gibbous, 59% of the Moon is Illuminated
Aug 22
Waning Gibbous
Aug 23
Last Quarter
Aug 30
New
Sep 5
First Quarter
Sep 13
Full

Hourly Weather History & Observations

Time (CDT) Temp. Dew Point Humidity Pressure Visibility Wind Dir Wind Speed Gust Speed Precip Events Conditions
12:53 AM 68.0 °F 64.0 °F 87% 30.04 in 10.0 mi North 6.9 mph - N/A   Overcast
1:53 AM 66.9 °F 63.0 °F 87% 30.00 in 10.0 mi North 5.8 mph - N/A   Partly Cloudy
2:53 AM 64.9 °F 62.1 °F 90% 30.00 in 10.0 mi North 5.8 mph - N/A   Clear
3:53 AM 64.0 °F 61.0 °F 90% 30.00 in 10.0 mi North 3.5 mph - N/A   Clear
4:53 AM 63.0 °F 60.1 °F 90% 29.99 in 10.0 mi NNE 6.9 mph - N/A   Clear
5:53 AM 61.0 °F 59.0 °F 93% 30.00 in 10.0 mi NNE 5.8 mph - N/A   Clear
6:53 AM 61.0 °F 57.9 °F 90% 30.01 in 9.0 mi North 4.6 mph - N/A   Clear
7:53 AM 63.0 °F 59.0 °F 87% 30.04 in 7.0 mi NNE 5.8 mph - N/A   Clear
8:53 AM 68.0 °F 59.0 °F 73% 30.04 in 7.0 mi NNE 5.8 mph - N/A   Clear
9:53 AM 70.0 °F 57.9 °F 65% 30.04 in 9.0 mi NE 8.1 mph - N/A   Clear
10:53 AM 73.0 °F 57.9 °F 59% 30.04 in 10.0 mi ENE 6.9 mph - N/A   Clear
11:53 AM 73.9 °F 57.0 °F 55% 30.04 in 10.0 mi East 8.1 mph - N/A   Clear
12:53 PM 75.0 °F 59.0 °F 57% 30.03 in 10.0 mi Variable 4.6 mph - N/A   Clear
1:53 PM 78.1 °F 57.9 °F 50% 30.02 in 10.0 mi NE 8.1 mph - N/A   Clear
2:53 PM 78.1 °F 57.9 °F 50% 30.01 in 10.0 mi NE 8.1 mph - N/A   Clear
3:53 PM 79.0 °F 57.0 °F 47% 30.00 in 10.0 mi NE 9.2 mph - N/A   Clear
4:53 PM 79.0 °F 55.9 °F 45% 30.00 in 10.0 mi NNE 8.1 mph - N/A   Clear
5:53 PM 78.1 °F 57.9 °F 50% 30.00 in 10.0 mi ENE 8.1 mph - N/A   Clear
6:53 PM 75.9 °F 59.0 °F 56% 30.00 in 10.0 mi ENE 5.8 mph - N/A   Clear
7:53 PM 72.0 °F 59.0 °F 64% 30.01 in 10.0 mi NE 5.8 mph - N/A   Clear
8:53 PM 69.1 °F 59.0 °F 70% 30.03 in 10.0 mi NE 5.8 mph - N/A   Clear
9:53 PM 68.0 °F 59.0 °F 73% 30.04 in 10.0 mi ENE 4.6 mph - N/A   Clear
10:53 PM 66.9 °F 59.0 °F 76% 30.04 in 10.0 mi ENE 6.9 mph - N/A   Clear
11:53 PM 64.9 °F 57.9 °F 78% 30.06 in 10.0 mi ENE 5.8 mph - N/A   Clear